Regional Weather Roundup
Issued by NWS

Home | Current Version | Previous Version | Graphics & Text | Print | Product List | Glossary On
Versions: 1 2 3 4 5 6 7 8 9 10 11 12 13 14 15 16 17 18 19 20 21 22 23 24 25 26 27 28 29 30 31 32 33 34 35 36 37 38 39 40 41 42 43 44 45 46 47 48 49 50
000
ASUS43 KDMX 281507
RWRIA

WEATHER ROUNDUP FOR IOWA
NATIONAL WEATHER SERVICE DES MOINES IA
1000 AM CDT TUE JUL 28 2015

NOTE: "FAIR" INDICATES FEW OR NO CLOUDS BELOW 12,000 FEET WITH NO
SIGNIFICANT WEATHER AND/OR OBSTRUCTIONS TO VISIBILITY.

* - THESE STATIONS ARE NOT NWS STATIONS...THUS NOT UNDER NWS
QUALITY CONTROL.  THEY ALSO DO NOT REPORT WEATHER SUCH
AS PRECIPITATION OR FOG.

IAZ001>003-012>014-020>022-031>034-043>046-281600-
   NORTHWEST IOWA

CITY           SKY/WX    TMP DP  RH WIND       PRES   REMARKS
CARROLL *      LGT RAIN  68  68 100 SE30G38   29.86F
CHEROKEE *     CLOUDY    70  70 100 SE7       29.84R
DENISON *      CLOUDY    70  68  94 SE24G32   29.79F
LE MARS *      MOSUNNY   73  70  88 S12       29.83R
ORANGE CITY *  MOSUNNY   72  66  83 S8        29.83R
SHELDON *      SUNNY     72  68  88 SW6       29.82R
SIOUX CITY     CLOUDY    73  68  84 S10       29.82R
SPENCER        CLOUDY    71  67  87 S13       29.86R
STORM LAKE *   SUNNY     68  68 100 SE9       29.87R
$$

IAZ055>058-069>071-079>083-090>094-281600-
   SOUTHWEST IOWA

CITY           SKY/WX    TMP DP  RH WIND       PRES   REMARKS
ATLANTIC *     PTSUNNY   72  70  94 NE8G15    29.94F
AUDUBON *      HVY RAIN  70  66  88 E7        29.94F
CLARINDA *     SUNNY     81  77  89 N10G16    29.93R HX  88
COUNCIL BLFS * CLOUDY    72  70  94 E13G23    29.88F
CRESTON *      PTSUNNY   77  72  83 N16       29.96R
HARLAN  *      LGT RAIN  70  70 100 E12G18    29.92F
LAMONI         MOSUNNY   83  75  77 S9        29.91S HX  90
RED OAK *      MOSUNNY   79  73  83 NE14      29.92F HX  82
SHENANDOAH *   SUNNY     81  75  83 NE10      29.91S HX  86
$$

IAZ047>049-059>061-072>074-084-281600-
   CENTRAL IOWA

CITY           SKY/WX    TMP DP  RH WIND       PRES   REMARKS
AMES           LGT RAIN  71  71 100 SE5       29.95S
ANKENY *       CLOUDY    73  73 100 N6        29.95R
CHARITON *     MOSUNNY   82  77  83 S7G15     29.92R HX  91
DES MOINES     CLOUDY    76  71  85 N7        29.94F
GRINNELL*      HVY RAIN  75  72  88 NW15      29.98R
KNOXVILLE *    PTSUNNY   77  73  88 NW15G29   29.96R
MARSHALLTOWN   TSTM      72  71  97 N5        29.95F FOG
PELLA *        CLOUDY    79  77  94 NW10G28   29.97R HX  83
PERRY *        LGT RAIN  72  70  94 SE9       29.94F
$$

IAZ004>006-015-016-023>025-035-036-281600-
   NORTH CENTRAL IOWA

CITY           SKY/WX    TMP DP  RH WIND       PRES   REMARKS
ALGONA *       SUNNY     72  70  94 SE13      29.82F
CLARION *      LGT RAIN  72  70  94 SE17      29.86F
ESTHERVILLE    CLOUDY    70  69  97 S10       29.83S
FORT DODGE *   CLOUDY    70  66  88 SE18G26   29.82F
MASON CITY     LGT RAIN  72  71  97 SE10      29.90R
FOREST CITY *  LGT RAIN  72  70  94 SE16      29.86R
IOWA FALLS *   RAIN      72  70  94 CALM      29.94S
$$

IAZ007>011-017>019-026>030-037>042-050>054-066-281600-
   NORTHEAST IOWA

CITY           SKY/WX    TMP DP  RH WIND       PRES   REMARKS
CEDAR RAPIDS   PTSUNNY   78  75  90 SE13      29.94S HX  81
CHARLES CITY * LGT RAIN  72  72 100 SE9       29.91
CLINTON *      CLOUDY    73  68  83 S3        30.00R
DECORAH *      DRIZZLE   72  72 100 E7        29.96S
DUBUQUE        CLOUDY    74  70  87 W7        30.02R
MONTICELLO *   CLOUDY    73  73 100 E7        29.97F FOG
OELWEIN *      SUNNY     73  73 100 SE8       29.96S
WATERLOO       TSTM      70  68  93 SE10      29.93R FOG
$$

IAZ064-065-067-068-078-281600-
   EAST CENTRAL IOWA

CITY           SKY/WX    TMP DP  RH WIND       PRES   REMARKS
DAVENPORT      TSTM      75  73  93 N8        29.99R FOG
IOWA CITY      MOSUNNY   78  74  87 SE8       29.96S HX  81
MT. PLEASANT * SUNNY     84  72  65 S8        29.95S HX  89
MUSCATINE *    PTSUNNY   81  75  83 CALM      29.96R HX  86
QUAD CITIES    PTSUNNY   79  73  82 SE5       29.95S HX  82
$$

IAZ062-063-075>077-085>089-095>099-281600-
   SOUTHEAST IOWA

CITY           SKY/WX    TMP DP  RH WIND       PRES   REMARKS
BURLINGTON     SUNNY     81  76  84 S9        29.95R HX  87
FAIRFIELD *    SUNNY     81  73  78 S8        29.95R HX  85
FORT MADISON * MOSUNNY   81  77  89 S7        29.96S HX  88
KEOKUK *       SUNNY     81  75  83 S7        29.94S HX  86
OSKALOOSA *      N/A     81  75  83 SE5       29.93S HX  86
CENTERVILLE *  SUNNY     84  77  79 S8        29.95S HX  94
OTTUMWA        MOSUNNY   80  76  87 S9        29.91S HX  86
WASHINGTON *   SUNNY     81  75  83 S6        29.97R HX  86
$$

ABBREVIATIONS USED IN REMARKS
   TC - TEMPERATURES IN CELSIUS
  WCI - WIND CHILL INDEX
   HX - HEAT INDEX
  VSB - VISIBILITY
$$



USA.gov is the U.S. government's official web portal to all federal, state and local government web resources and services.